Butte, MT

12:47 AM MDT on June 25, 2017 (GMT -0600)
Mooney

Weather History for KBTM - June, 2014

Change the Weather History Date:

Sunday, June 29, 2014

  Actual Average Record
Temperature  
Mean Temperature 52 °F 60 °F  
Max Temperature 67 °F 76 °F 93 °F (1937)
Min Temperature 36 °F 44 °F 29 °F (1947)
Degree Days  
Heating Degree Days 13 6  
Month to date heating degree days 343 281  
Since 1 June heating degree days 343 281  
Since 1 July heating degree days 9092 9213  
Cooling Degree Days 0 1  
Month to date cooling degree days 0 2  
Year to date cooling degree days 0 2  
Since 1 June cooling degree days 0 2  
Growing Degree Days 2 (Base 50)    
Moisture  
Dew Point 33 °F    
Average Humidity 58    
Maximum Humidity 92    
Minimum Humidity 24    
Precipitation  
Precipitation 0.00 in 0.05 in 0.95 in (1955)
Month to date precipitation 3.43 2.21  
Year to date precipitation 7.71 7.12  
Sea Level Pressure  
Sea Level Pressure 29.97 in    
Wind  
Wind Speed 10 mph (WNW)    
Max Wind Speed 26 mph    
Max Gust Speed 35 mph    
Visibility 10 miles    
Events      
T = Trace of Precipitation, MM = Missing Value Source: NWS Daily Summary

Daily Weather History Graph

Daily Weather History Graph

Search for Another Location

Airport or City:

Trip Planner

Search our weather history database for the weather conditions in past years. The results will help you decide how hot, cold, wet, or windy it might be!

Date:

Astronomy

Jun. 29, 2014 Rise Set
Actual Time 5:42 AM MDT 9:24 PM MDT
Civil Twilight 5:03 AM MDT 10:02 PM MDT
Nautical Twilight 4:12 AM MDT 10:54 PM MDT
Astronomical Twilight 3:01 AM MDT 12:04 AM MDT
Moon 8:12 AM MDT (6/29) 10:36 PM MDT (6/29)
Length of Visible Light 16h 58m
Length of Day
15h 42m
Waxing Crescent, 5% of the Moon is Illuminated
Jun 29
Waxing Crescent
Jul 5
First Quarter
Jul 12
Full
Jul 18
Last Quarter
Jul 26
New

Hourly Weather History & Observations

Time (MDT) Temp. Windchill Dew Point Humidity Pressure Visibility Wind Dir Wind Speed Gust Speed Precip Events Conditions
12:53 AM 46.0 °F - 37.0 °F 71% 29.95 in 10.0 mi Calm Calm - N/A   Mostly Cloudy
1:53 AM 45.0 °F 43.5 °F 37.9 °F 76% 29.95 in 10.0 mi South 3.5 mph - N/A   Scattered Clouds
2:53 AM 41.0 °F 38.0 °F 37.0 °F 86% 29.97 in 10.0 mi SE 4.6 mph - N/A   Clear
3:53 AM 39.9 °F 37.8 °F 36.0 °F 86% 29.96 in 10.0 mi East 3.5 mph - N/A   Partly Cloudy
4:53 AM 37.9 °F - 35.1 °F 89% 29.98 in 10.0 mi Calm Calm - N/A   Clear
5:53 AM 37.0 °F - 34.0 °F 89% 30.00 in 10.0 mi Calm Calm - N/A   Clear
6:53 AM 37.9 °F - 35.1 °F 89% 30.01 in 10.0 mi Calm Calm - N/A   Clear
7:53 AM 46.9 °F - 37.9 °F 71% 29.99 in 10.0 mi Calm Calm - N/A   Clear
8:53 AM 54.0 °F - 36.0 °F 51% 29.97 in 10.0 mi Calm Calm - N/A   Mostly Cloudy
9:53 AM 57.0 °F - 30.0 °F 36% 29.96 in 10.0 mi WNW 11.5 mph 18.4 mph N/A   Partly Cloudy
10:53 AM 59.0 °F - 30.0 °F 33% 29.96 in 10.0 mi West 12.7 mph 21.9 mph N/A   Mostly Cloudy
11:53 AM 59.0 °F - 32.0 °F 36% 29.96 in 10.0 mi WNW 13.8 mph 19.6 mph N/A   Overcast
12:53 PM 62.1 °F - 32.0 °F 32% 29.96 in 10.0 mi West 15.0 mph 21.9 mph N/A   Scattered Clouds
1:53 PM 63.0 °F - 30.9 °F 30% 29.95 in 10.0 mi West 18.4 mph 26.5 mph N/A   Scattered Clouds
2:53 PM 64.0 °F - 33.1 °F 31% 29.95 in 10.0 mi NW 12.7 mph 25.3 mph N/A   Scattered Clouds
3:53 PM 64.0 °F - 30.9 °F 29% 29.96 in 10.0 mi WNW 13.8 mph 23.0 mph N/A   Scattered Clouds
4:53 PM 66.0 °F - 32.0 °F 28% 29.94 in 10.0 mi NW 12.7 mph 25.3 mph N/A   Mostly Cloudy
5:53 PM 66.0 °F - 28.9 °F 25% 29.94 in 10.0 mi WNW 17.3 mph 26.5 mph N/A   Partly Cloudy
6:53 PM 64.9 °F - 28.9 °F 26% 29.94 in 10.0 mi NW 21.9 mph 27.6 mph N/A   Partly Cloudy
7:53 PM 62.1 °F - 30.0 °F 30% 29.94 in 10.0 mi NW 19.6 mph 31.1 mph N/A   Clear
8:53 PM 57.9 °F - 30.0 °F 35% 29.97 in 10.0 mi NW 19.6 mph 31.1 mph N/A   Clear
9:53 PM 53.1 °F - 35.1 °F 50% 30.01 in 10.0 mi North 13.8 mph - N/A   Clear
10:53 PM 51.1 °F - 34.0 °F 52% 30.05 in 10.0 mi West 8.1 mph - N/A   Clear
11:53 PM 48.9 °F - 34.0 °F 56% 30.07 in 10.0 mi West 4.6 mph - N/A   Mostly Cloudy